When you browse on this site, cookies collect data to enhance your experience and personalize the content and advertising you see.
Visit our Privacy Policy to learn more. By continuing to use the site, you agree to this use of cookies and data.
  • En España
  • Lista de países
  • Para 7 días
  • Temperatura del agua
  • Mapa Satelital
  • El tiempo en el mapa
  • Informadores
  • user-avatar
    Iniciar sesión

    Tiempo cada hora Dhaka

    Hoy, 18 Enero, Viernes

    Tiempo Temperatura Precipitaciones Viento Presión Humedad
    00:00 +20°C° 0 mm 2 mps 759 mmHg 49%
    01:00 +21°C° 0 mm 1 mps 759 mmHg 51%
    02:00 +20°C° 0 mm 1 mps 759 mmHg 53%
    03:00 +19°C° 0 mm 1 mps 759 mmHg 55%
    04:00 +19°C° 0 mm 1 mps 759 mmHg 57%
    05:00 +19°C° 0 mm 1 mps 759 mmHg 58%
    06:00 +16°C° 0 mm 0 mps 759 mmHg 65%
    07:00 +18°C° 0 mm 0 mps 760 mmHg 61%
    08:00 +19°C° 0 mm 0 mps 760 mmHg 57%
    09:00 +21°C° 0 mm 0 mps 761 mmHg 53%
    10:00 +22°C° 0 mm 0 mps 760 mmHg 47%
    11:00 +25°C° 0 mm 1 mps 760 mmHg 41%
    12:00 +27°C° 0 mm 1 mps 760 mmHg 36%
    13:00 +27°C° 0 mm 1 mps 760 mmHg 35%
    14:00 +28°C° 0 mm 2 mps 759 mmHg 34%
    15:00 +28°C° 0 mm 2 mps 758 mmHg 33%
    16:00 +27°C° 0 mm 2 mps 758 mmHg 36%
    17:00 +26°C° 0 mm 2 mps 758 mmHg 38%
    18:00 +24°C° 0 mm 1 mps 758 mmHg 42%
    19:00 +24°C° 0 mm 1 mps 758 mmHg 44%
    20:00 +23°C° 0 mm 1 mps 758 mmHg 45%
    21:00 +21°C° 0 mm 0 mps 759 mmHg 47%
    22:00 +20°C° 0 mm 0 mps 759 mmHg 48%
    23:00 +20°C° 0 mm 0 mps 759 mmHg 50%

    Mañana, 19 Enero, Sábado

    Tiempo Temperatura Precipitaciones Viento Presión Humedad
    00:00 +22°C° 0 mm 1 mps 759 mmHg 51%
    01:00 +21°C° 0 mm 1 mps 759 mmHg 53%
    02:00 +21°C° 0 mm 1 mps 759 mmHg 54%
    03:00 +20°C° 0 mm 1 mps 759 mmHg 56%
    04:00 +20°C° 0 mm 1 mps 759 mmHg 58%
    05:00 +19°C° 0 mm 1 mps 759 mmHg 59%
    06:00 +19°C° 0 mm 1 mps 760 mmHg 61%
    07:00 +20°C° 0 mm 1 mps 760 mmHg 58%
    08:00 +21°C° 0 mm 1 mps 761 mmHg 54%
    09:00 +23°C° 0 mm 1 mps 761 mmHg 51%
    10:00 +24°C° 0 mm 1 mps 761 mmHg 46%
    11:00 +26°C° 0 mm 1 mps 761 mmHg 41%
    12:00 +27°C° 0 mm 1 mps 761 mmHg 36%
    13:00 +27°C° 0 mm 1 mps 760 mmHg 33%
    14:00 +28°C° 0 mm 2 mps 760 mmHg 31%
    15:00 +28°C° 0 mm 2 mps 759 mmHg 29%
    16:00 +27°C° 0 mm 2 mps 759 mmHg 31%
    17:00 +26°C° 0 mm 2 mps 759 mmHg 34%
    18:00 +25°C° 0 mm 2 mps 759 mmHg 36%
    19:00 +24°C° 0 mm 2 mps 759 mmHg 38%
    20:00 +23°C° 0 mm 2 mps 759 mmHg 40%
    21:00 +23°C° 0 mm 2 mps 760 mmHg 42%
    22:00 +22°C° 0 mm 1 mps 760 mmHg 43%
    23:00 +22°C° 0 mm 1 mps 760 mmHg 45%

    Pasado mañana, 20 Enero, Domingo

    Tiempo Temperatura Precipitaciones Viento Presión Humedad
    00:00 +21°C° 0 mm 1 mps 760 mmHg 46%
    01:00 +21°C° 0 mm 1 mps 760 mmHg 48%
    02:00 +20°C° 0 mm 1 mps 759 mmHg 49%
    03:00 +20°C° 0 mm 1 mps 759 mmHg 51%
    04:00 +20°C° 0 mm 1 mps 759 mmHg 52%
    05:00 +19°C° 0 mm 1 mps 759 mmHg 54%
    06:00 +19°C° 0 mm 1 mps 759 mmHg 55%
    07:00 +20°C° 0 mm 1 mps 760 mmHg 52%
    08:00 +21°C° 0 mm 1 mps 761 mmHg 49%
    09:00 +21°C° 0 mm 0 mps 762 mmHg 45%
    10:00 +24°C° 0 mm 1 mps 761 mmHg 43%
    11:00 +26°C° 0 mm 1 mps 761 mmHg 40%
    12:00 +27°C° 0 mm 1 mps 761 mmHg 37%
    13:00 +27°C° 0 mm 2 mps 760 mmHg 35%
    14:00 +28°C° 0 mm 2 mps 759 mmHg 33%
    15:00 +28°C° 0 mm 2 mps 759 mmHg 30%
    16:00 +27°C° 0 mm 2 mps 759 mmHg 32%
    17:00 +26°C° 0 mm 2 mps 759 mmHg 34%
    18:00 +25°C° 0 mm 2 mps 759 mmHg 36%
    19:00 +24°C° 0 mm 2 mps 759 mmHg 37%
    20:00 +24°C° 0 mm 2 mps 760 mmHg 39%
    21:00 +23°C° 0 mm 2 mps 760 mmHg 40%
    22:00 +21°C° 0 mm 2 mps 760 mmHg 42%
    23:00 +21°C° 0 mm 2 mps 760 mmHg 44%

    21 Enero, Lunes

    Tiempo Temperatura Precipitaciones Viento Presión Humedad
    00:00 +20°C° 0 mm 2 mps 760 mmHg 45%
    01:00 +20°C° 0 mm 2 mps 760 mmHg 47%
    02:00 +19°C° 0 mm 2 mps 759 mmHg 49%
    03:00 +19°C° 0 mm 2 mps 759 mmHg 51%
    04:00 +19°C° 0 mm 1 mps 759 mmHg 54%
    05:00 +19°C° 0 mm 1 mps 760 mmHg 56%
    06:00 +16°C° 0 mm 0 mps 760 mmHg 58%
    07:00 +20°C° 0 mm 1 mps 761 mmHg 55%
    08:00 +21°C° 0 mm 1 mps 761 mmHg 51%
    09:00 +23°C° 0 mm 1 mps 762 mmHg 47%
    10:00 +24°C° 0 mm 1 mps 762 mmHg 42%
    11:00 +26°C° 0 mm 1 mps 761 mmHg 38%
    12:00 +28°C° 0 mm 2 mps 761 mmHg 33%
    13:00 +28°C° 0 mm 2 mps 760 mmHg 31%
    14:00 +29°C° 0 mm 2 mps 759 mmHg 29%
    15:00 +29°C° 0 mm 2 mps 759 mmHg 27%
    16:00 +28°C° 0 mm 2 mps 758 mmHg 30%
    17:00 +26°C° 0 mm 2 mps 758 mmHg 32%
    18:00 +25°C° 0 mm 2 mps 758 mmHg 35%
    19:00 +24°C° 0 mm 2 mps 759 mmHg 36%
    20:00 +24°C° 0 mm 2 mps 759 mmHg 38%
    21:00 +23°C° 0 mm 2 mps 760 mmHg 40%
    22:00 +21°C° 0 mm 2 mps 760 mmHg 41%
    23:00 +21°C° 0 mm 2 mps 759 mmHg 43%

    22 Enero, Martes

    Tiempo Temperatura Precipitaciones Viento Presión Humedad
    00:00 +21°C° 0 mm 1 mps 759 mmHg 44%
    01:00 +21°C° 0 mm 1 mps 759 mmHg 46%
    02:00 +20°C° 0 mm 1 mps 759 mmHg 47%
    03:00 +20°C° 0 mm 1 mps 759 mmHg 48%
    04:00 +19°C° 0 mm 1 mps 759 mmHg 49%
    05:00 +19°C° 0 mm 1 mps 759 mmHg 50%
    06:00 +17°C° 0 mm 0 mps 759 mmHg 51%
    07:00 +20°C° 0 mm 1 mps 760 mmHg 48%
    08:00 +22°C° 0 mm 1 mps 761 mmHg 44%
    09:00 +24°C° 0 mm 1 mps 761 mmHg 40%
    10:00 +25°C° 0 mm 1 mps 761 mmHg 37%
    11:00 +27°C° 0 mm 2 mps 761 mmHg 33%
    12:00 +29°C° 0 mm 3 mps 760 mmHg 30%
    13:00 +29°C° 0 mm 3 mps 760 mmHg 28%
    14:00 +30°C° 0 mm 2 mps 759 mmHg 27%
    15:00 +30°C° 0 mm 2 mps 758 mmHg 26%
    16:00 +29°C° 0 mm 2 mps 758 mmHg 28%
    17:00 +27°C° 0 mm 1 mps 758 mmHg 31%
    18:00 +26°C° 0 mm 1 mps 758 mmHg 34%
    19:00 +25°C° 0 mm 1 mps 759 mmHg 35%
    20:00 +24°C° 0 mm 1 mps 759 mmHg 37%
    21:00 +24°C° 0 mm 1 mps 760 mmHg 38%
    22:00 +23°C° 0 mm 1 mps 760 mmHg 39%
    23:00 +23°C° 0 mm 1 mps 760 mmHg 41%

    23 Enero, Miércoles

    Tiempo Temperatura Precipitaciones Viento Presión Humedad
    00:00 +22°C° 0 mm 1 mps 760 mmHg 42%
    01:00 +22°C° 0 mm 1 mps 760 mmHg 43%
    02:00 +21°C° 0 mm 1 mps 759 mmHg 44%
    03:00 +21°C° 0 mm 1 mps 759 mmHg 45%
    04:00 +20°C° 0 mm 1 mps 759 mmHg 46%
    05:00 +20°C° 0 mm 1 mps 759 mmHg 48%
    06:00 +19°C° 0 mm 1 mps 760 mmHg 49%
    07:00 +21°C° 0 mm 1 mps 760 mmHg 47%
    08:00 +22°C° 0 mm 1 mps 761 mmHg 44%
    09:00 +24°C° 0 mm 1 mps 762 mmHg 42%
    10:00 +25°C° 0 mm 1 mps 762 mmHg 37%
    11:00 +27°C° 0 mm 1 mps 761 mmHg 33%
    12:00 +29°C° 0 mm 1 mps 761 mmHg 29%
    13:00 +29°C° 0 mm 2 mps 760 mmHg 27%
    14:00 +30°C° 0 mm 2 mps 759 mmHg 26%
    15:00 +31°C° 0 mm 2 mps 759 mmHg 24%
    16:00 +29°C° 0 mm 2 mps 759 mmHg 27%
    17:00 +28°C° 0 mm 1 mps 759 mmHg 29%
    18:00 +27°C° 0 mm 1 mps 759 mmHg 31%
    19:00 +26°C° 0 mm 1 mps 759 mmHg 33%
    20:00 +25°C° 0 mm 1 mps 759 mmHg 34%
    21:00 +25°C° 0 mm 1 mps 760 mmHg 35%
    22:00 +24°C° 0 mm 1 mps 759 mmHg 37%
    23:00 +24°C° 0 mm 1 mps 759 mmHg 38%
    Mostrar más